Regional Weather Roundup
Issued by NWS Newport/Morehead, NC

Current Version | Previous Version | Text Only | Print | Product List | Glossary Off
Versions: 1 2 3 4 5 6 7 8 9 10 11 12 13 14 15 16 17 18 19 20 21 22 23 24 25 26 27 28 29 30 31 32 33 34 35 36 37 38 39 40 41 42 43 44 45 46 47 48 49 50
919 ASUS42 KMHX 181625 RWRMHX WEATHER ROUNDUP FOR EASTERN NORTH CAROLINA NATIONAL WEATHER SERVICE NEWPORT/MOREHEAD CITY NC 1100 AM EST SUN FEB 18 2018 NOTE: "FAIR" INDICATES FEW OR NO CLOUDS BELOW 12,000 FEET WITH NO SIGNIFICANT WEATHER AND/OR OBSTRUCTIONS TO VISIBILITY NCZ015>017-031-032-045>047-102-103-181700- NORTH COAST CITY SKY/WX TMP DP RH WIND PRES REMARKS EDENTON FAIR 54 44 69 NE10G22 30.40R ELIZABETH CITY FAIR 52 41 66 N16G23 30.39R KITTY HAWK FAIR 46 43 89 NE13 30.39R MANTEO FAIR 48 39 71 NE17G28 30.40R $$ NCZ045>047-081-094-103-104-181700- CENTRAL COAST CITY SKY/WX TMP DP RH WIND PRES REMARKS FRISCO FAIR 52 42 69 NE15G24 30.37R $$ NCZ095-097-098-100-101-181700- SOUTHERN COAST CITY SKY/WX TMP DP RH WIND PRES REMARKS BEAUFORT CLOUDY 58 42 55 NE14G25 30.35R CEDAR ISLAND NOT AVBL JACKSONVILLE PTSUNNY 59 44 57 N16 30.34R PINEY ISLAND NOT AVBL WILMINGTON PTSUNNY 61 46 57 NE15 30.33R $$ NCZ011>013-027>030-043-044-078>080-089-090>093-098-181700- COASTAL PLAIN CITY SKY/WX TMP DP RH WIND PRES REMARKS AHOSKIE FAIR 49 40 72 E6 30.40R CLINTON CLOUDY 57 43 59 NE9 30.36R ELIZABETHTOWN NOT AVBL GOLDSBORO FAIR 58 42 55 N9 30.35R GREENVILLE FAIR 59 37 44 NE12 30.37 HAVELOCK NOT AVBL KENANSVILLE PTSUNNY 59 41 51 NE10G18 30.36R KINSTON FAIR 57 45 62 NE9 30.37R NEW BERN FAIR 58 43 57 NE13 30.36R RICHLANDS PTSUNNY 59 44 57 N12G17 30.35R ROCKY MOUNT FAIR 56 40 55 N12 30.37R WASHINGTON FAIR 58 40 50 NE12G17 30.37R WHITEVILLE CLOUDY 60 46 59 NE10G16 30.32R $$ AMZ130-135-150-152-154-156-158-170-250-252-270-ANZ085-086-088-633-658-670-181700- MARINE OBSERVATIONS STATION/POSITION TIME TEMP WIND PRES WAVE SWELL AIR SEA DIR/SP/G HT/PER HT/PER (UTC) (F) (DEG/KT/KT) (MB) (FT/S) (FT/S) CHESAPEAKE LIGHT NOT AVBL 64 E VA BEACH 1550 47 50 360/ 25/ 29 1028.1 6/ 5 2/ 9 DUCK 1600 43 44 10/ 10/ 12 1029.0 2 E DUCK 1600 44 N/A 3/ 5 OREGON INLET 1600 10/ 11/ 17 N/A 13E OREGON INLT 1548 45 N/A 4/ 6 3/ 6 HATTERAS CG 1600 49 56 20/ 21/ 25 1028.2 DIAMOND BUOY 1600 53 70 10/ 23/ 31 1028.2 CAPE LOOKOUT 1600 20/ 14/ 20 1027.9 BEAUFORT LAB 1600 56 53 20/ 12/ 21 1027.8 30 SE NEW RVR IN 1508 56 67 60/ 16/ 19 1026.5 30 SE NEW RVR IN 1600 67 N/A 4/10 2/11 27 SE WRIGHTSVLE 1508 58 64 60/ 17/ 25 1026.1 5 SE WRIGHTSVLE 1608 53 54 60/ 10/ 14 1026.8 225 S CAPE HAT 1550 73 73 270/ 6/ 8 1024.2 5/ 8 5/ 8 41 SE CHARLESTON 1600 65 30/ 14/ 17 1025.5 $$

USA.gov is the U.S. government's official web portal to all federal, state and local government web resources and services.